Bookmark and Share
Track history (hours):
 

Liguria

Last reported at 2014-Apr-20 11:05 UTC. Time now 2014-Apr-20 13:24 UTC.
Position N 44°18' E 008°29'.

Length 30 m.

Type: Tug. MMSI: 247228500.

NotesDate/timePositionNaut miles runAvg speedWind from/ knotsBaromVisibWave heightAir tempDewpointWater temp
2014-Apr-20 11:05N 44°18' E 008°29'0 0.9
2014-Apr-20 10:33N 44°19' E 008°30'3 2.7
2014-Apr-20 09:30N 44°16' E 008°28'0 0.3
2014-Apr-20 08:33N 44°16' E 008°28'2 2.4
2014-Apr-20 07:33N 44°18' E 008°29'0 0.0
2014-Apr-20 06:30N 44°18' E 008°29'0 0.0
2014-Apr-20 05:30N 44°18' E 008°29'0 0.0
2014-Apr-20 04:30N 44°18' E 008°29'0 0.0
2014-Apr-20 03:33N 44°18' E 008°29'0 0.0
2014-Apr-20 02:30N 44°18' E 008°29'0 0.0
2014-Apr-20 01:33N 44°18' E 008°29'0 0.0
2014-Apr-20 00:30N 44°18' E 008°29'0 0.0
2014-Apr-19 23:30N 44°18' E 008°29'0 0.0
2014-Apr-19 22:24N 44°18' E 008°29'0 0.0
2014-Apr-19 12:32N 44°18' E 008°29'0 0.0
2014-Apr-19 11:32N 44°18' E 008°29'0 0.0
2014-Apr-19 10:32N 44°18' E 008°29'0 0.0
2014-Apr-19 09:32N 44°18' E 008°29'2 2.3
2014-Apr-19 08:32N 44°16' E 008°28'0 0.1
2014-Apr-19 07:33N 44°17' E 008°28'2 2.4
2014-Apr-19 06:33N 44°19' E 008°29'0 0.4
2014-Apr-19 05:29N 44°19' E 008°30'0 0.5
2014-Apr-19 04:28N 44°18' E 008°29'0 0.0
2014-Apr-18 17:09N 44°18' E 008°29'1 0.9
2014-Apr-18 16:28N 44°19' E 008°30'1 0.1
2014-Apr-18 12:08N 44°18' E 008°29'0 0.0
2014-Apr-18 07:28N 44°18' E 008°29'0 0.0
2014-Apr-18 06:33N 44°18' E 008°29'2 2.1
2014-Apr-18 05:28N 44°17' E 008°28'3 2.9
2014-Apr-18 04:33N 44°19' E 008°30'0 0.3
2014-Apr-18 03:32N 44°18' E 008°29'0 0.0
2014-Apr-18 02:32N 44°18' E 008°29'0 0.0
2014-Apr-18 01:32N 44°18' E 008°29'0 0.0
2014-Apr-18 00:32N 44°18' E 008°29'0 0.0
2014-Apr-17 23:32N 44°18' E 008°29'0 0.0
2014-Apr-17 22:32N 44°18' E 008°29'0 0.0
2014-Apr-17 21:32N 44°18' E 008°29'0 0.0
2014-Apr-17 20:32N 44°18' E 008°29'0 0.0
2014-Apr-17 19:32N 44°18' E 008°29'0 0.0
2014-Apr-17 18:29N 44°18' E 008°29'0 0.0
2014-Apr-17 17:29N 44°18' E 008°29'0 0.0
2014-Apr-17 16:29N 44°18' E 008°29'0 0.0
2014-Apr-17 15:32N 44°18' E 008°29'0 0.0
2014-Apr-17 14:17N 44°18' E 008°29'1 0.1
2014-Apr-17 09:33N 44°19' E 008°30'3 2.3
2014-Apr-17 08:29N 44°17' E 008°28'0 0.5
2014-Apr-17 07:32N 44°16' E 008°28'2 1.1
2014-Apr-17 05:20N 44°18' E 008°29'1 0.8
2014-Apr-17 04:33N 44°19' E 008°30'1 0.1
2014-Apr-16 16:16N 44°18' E 008°29'0 0.0
2014-Apr-16 15:31N 44°18' E 008°29'0 0.0
2014-Apr-16 11:31N 44°18' E 008°29'0 0.0
2014-Apr-16 10:22N 44°18' E 008°29'0 0.0
2014-Apr-16 07:28N 44°18' E 008°29'0 0.2
2014-Apr-16 05:23N 44°19' E 008°30'0 0.0
2014-Apr-16 04:18N 44°19' E 008°30'0 0.0
2014-Apr-15 19:32N 44°18' E 008°29'3 2.3
2014-Apr-15 18:14N 44°16' E 008°27'0 0.1
2014-Apr-15 15:33N 44°16' E 008°27'0 0.2
2014-Apr-15 14:24N 44°16' E 008°27'3 0.1
2014-Apr-14 10:33N 44°18' E 008°29'3 0.9
2014-Apr-14 07:31N 44°16' E 008°27'  
2014-Apr-12 03:31N 44°18' E 008°29'0 0.0
2014-Apr-12 02:25N 44°18' E 008°29'0 0.0
2014-Apr-12 00:07N 44°18' E 008°29'0 0.0
2014-Apr-11 23:16N 44°18' E 008°29'0 0.0
2014-Apr-11 19:31N 44°18' E 008°29'0 0.0
2014-Apr-11 16:13N 44°18' E 008°29'0 0.2
2014-Apr-11 15:33N 44°19' E 008°29'0 0.0
2014-Apr-11 11:33N 44°18' E 008°29'0 0.0
2014-Apr-11 07:18N 44°18' E 008°29'0 0.0
2014-Apr-11 04:12N 44°18' E 008°29'0 0.0
2014-Apr-11 03:33N 44°18' E 008°29'0 0.0
2014-Apr-11 02:33N 44°18' E 008°29'0 0.0
2014-Apr-11 01:30N 44°18' E 008°29'0 0.0
2014-Apr-11 00:33N 44°18' E 008°29'0 0.0
2014-Apr-10 23:33N 44°18' E 008°29'0 0.0
2014-Apr-10 15:25N 44°18' E 008°29'0 0.0
2014-Apr-10 11:31N 44°18' E 008°29'  

Dump ship's entire track history

sailing weather and tide predictions

Liguria — IRKJ — position and weather